History Data

Date (GMT-7:00) CPM ACPM uSv/h Latitude Longitude Altitude CO CO2 TVOC HCHO Air Pressure Temperature Humidity Type
2025-11-10 13:11:12 19 19.60 0.095000 41.649648 41.62752893 0 0 0 0 0 0 0 0 STD5.60
2025-11-10 13:06:10 19 18.60 0.095000 41.649648 41.62752893 0 0 0 0 0 0 0 0 STD5.60
2025-11-10 13:01:08 18 16.50 0.090000 41.649648 41.62752893 0 0 0 0 0 0 0 0 STD5.60
2025-11-10 12:56:06 18 15.70 0.090000 41.649648 41.62752893 0 0 0 0 0 0 0 0 STD5.60
2025-11-10 12:51:03 22 16.90 0.110000 41.649648 41.62752893 0 0 0 0 0 0 0 0 STD5.60
2025-11-10 12:46:01 8 18.00 0.040000 41.649648 41.62752893 0 0 0 0 0 0 0 0 STD5.60
2025-11-10 12:40:59 20 14.20 0.100000 41.649648 41.62752893 0 0 0 0 0 0 0 0 STD5.60
2025-11-10 12:35:57 12 5.30 0.060000 41.649648 41.62752893 0 0 0 0 0 0 0 0 STD5.60
2025-11-10 12:30:53 20 15.90 0.100000 41.649648 41.62752893 0 0 0 0 0 0 0 0 STD5.60
2025-11-10 12:25:50 15 17.50 0.075000 41.649648 41.62752893 0 0 0 0 0 0 0 0 STD5.60
2025-11-10 12:20:48 23 19.40 0.115000 41.649648 41.62752893 0 0 0 0 0 0 0 0 STD5.60
2025-11-10 12:15:46 25 17.40 0.125000 41.649648 41.62752893 0 0 0 0 0 0 0 0 STD5.60
2025-11-10 12:10:44 21 16.80 0.105000 41.649648 41.62752893 0 0 0 0 0 0 0 0 STD5.60
2025-11-10 12:05:42 10 17.70 0.050000 41.649648 41.62752893 0 0 0 0 0 0 0 0 STD5.60
2025-11-10 12:00:40 20 16.00 0.100000 41.649648 41.62752893 0 0 0 0 0 0 0 0 STD5.60
2025-11-10 11:55:37 10 16.80 0.050000 41.649648 41.62752893 0 0 0 0 0 0 0 0 STD5.60
2025-11-10 11:50:35 23 18.90 0.115000 41.649648 41.62752893 0 0 0 0 0 0 0 0 STD5.60
2025-11-10 11:45:33 23 20.40 0.115000 41.649648 41.62752893 0 0 0 0 0 0 0 0 STD5.60
2025-11-10 11:40:31 19 20.00 0.095000 41.649648 41.62752893 0 0 0 0 0 0 0 0 STD5.60
2025-11-10 11:35:30 17 16.90 0.085000 41.649648 41.62752893 0 0 0 0 0 0 0 0 STD5.60
2025-11-10 11:30:24 15 18.00 0.075000 41.649648 41.62752893 0 0 0 0 0 0 0 0 STD5.60
2025-11-10 11:25:22 22 19.70 0.110000 41.649648 41.62752893 0 0 0 0 0 0 0 0 STD5.60
2025-11-10 11:20:20 18 16.60 0.090000 41.649648 41.62752893 0 0 0 0 0 0 0 0 STD5.60
2025-11-10 11:15:18 16 15.30 0.080000 41.649648 41.62752893 0 0 0 0 0 0 0 0 STD5.60
2025-11-10 11:10:15 14 18.10 0.070000 41.649648 41.62752893 0 0 0 0 0 0 0 0 STD5.60
2025-11-10 11:05:15 19 20.10 0.095000 41.649648 41.62752893 0 0 0 0 0 0 0 0 STD5.60
2025-11-10 11:00:11 24 18.90 0.120000 41.649648 41.62752893 0 0 0 0 0 0 0 0 STD5.60
2025-11-10 10:55:09 20 18.90 0.100000 41.649648 41.62752893 0 0 0 0 0 0 0 0 STD5.60
2025-11-10 10:50:07 16 17.30 0.080000 41.649648 41.62752893 0 0 0 0 0 0 0 0 STD5.60
2025-11-10 10:45:05 8 15.90 0.040000 41.649648 41.62752893 0 0 0 0 0 0 0 0 STD5.60
2025-11-10 10:40:05 15 16.20 0.075000 41.649648 41.62752893 0 0 0 0 0 0 0 0 STD5.60
2025-11-10 10:35:01 12 15.20 0.060000 41.649648 41.62752893 0 0 0 0 0 0 0 0 STD5.60
2025-11-10 10:29:56 12 16.30 0.060000 41.649648 41.62752893 0 0 0 0 0 0 0 0 STD5.60
2025-11-10 10:24:54 15 17.90 0.075000 41.649648 41.62752893 0 0 0 0 0 0 0 0 STD5.60
2025-11-10 10:19:52 18 17.80 0.090000 41.649648 41.62752893 0 0 0 0 0 0 0 0 STD5.60
2025-11-10 10:14:50 19 18.90 0.095000 41.649648 41.62752893 0 0 0 0 0 0 0 0 STD5.60
2025-11-10 10:09:48 24 18.20 0.120000 41.649648 41.62752893 0 0 0 0 0 0 0 0 STD5.60
2025-11-10 10:04:46 22 15.30 0.110000 41.649648 41.62752893 0 0 0 0 0 0 0 0 STD5.60
2025-11-10 09:59:44 15 14.80 0.075000 41.649648 41.62752893 0 0 0 0 0 0 0 0 STD5.60
2025-11-10 09:54:41 14 16.40 0.070000 41.649648 41.62752893 0 0 0 0 0 0 0 0 STD5.60
2025-11-10 09:49:38 19 19.10 0.095000 41.649648 41.62752893 0 0 0 0 0 0 0 0 STD5.60
2025-11-10 09:44:36 12 18.00 0.060000 41.649648 41.62752893 0 0 0 0 0 0 0 0 STD5.60
2025-11-10 09:39:34 16 18.50 0.080000 41.649648 41.62752893 0 0 0 0 0 0 0 0 STD5.60
2025-11-10 09:34:32 20 18.30 0.100000 41.649648 41.62752893 0 0 0 0 0 0 0 0 STD5.60
2025-11-10 09:29:28 18 17.10 0.090000 41.649648 41.62752893 0 0 0 0 0 0 0 0 STD5.60
2025-11-10 09:24:25 20 18.70 0.100000 41.649648 41.62752893 0 0 0 0 0 0 0 0 STD5.60
2025-11-10 09:19:23 12 18.60 0.060000 41.649648 41.62752893 0 0 0 0 0 0 0 0 STD5.60
2025-11-10 09:14:21 16 16.90 0.080000 41.649648 41.62752893 0 0 0 0 0 0 0 0 STD5.60
2025-11-10 09:09:19 17 17.50 0.085000 41.649648 41.62752893 0 0 0 0 0 0 0 0 STD5.60
2025-11-10 09:04:17 16 18.70 0.080000 41.649648 41.62752893 0 0 0 0 0 0 0 0 STD5.60
2025-11-10 08:59:15 13 19.20 0.065000 41.649648 41.62752893 0 0 0 0 0 0 0 0 STD5.60
2025-11-10 08:54:13 16 19.80 0.080000 41.649648 41.62752893 0 0 0 0 0 0 0 0 STD5.60
2025-11-10 08:49:11 18 18.80 0.090000 41.649648 41.62752893 0 0 0 0 0 0 0 0 STD5.60
2025-11-10 08:44:08 17 18.00 0.085000 41.649648 41.62752893 0 0 0 0 0 0 0 0 STD5.60
2025-11-10 08:39:06 21 18.80 0.105000 41.649648 41.62752893 0 0 0 0 0 0 0 0 STD5.60
2025-11-10 08:34:04 18 17.40 0.090000 41.649648 41.62752893 0 0 0 0 0 0 0 0 STD5.60
2025-11-10 08:28:45 12 16.60 0.060000 41.649648 41.62752893 0 0 0 0 0 0 0 0 STD5.60
2025-11-10 08:23:43 25 18.60 0.125000 41.649648 41.62752893 0 0 0 0 0 0 0 0 STD5.60
2025-11-10 08:18:41 16 18.00 0.080000 41.649648 41.62752893 0 0 0 0 0 0 0 0 STD5.60
2025-11-10 08:13:39 24 18.60 0.120000 41.649648 41.62752893 0 0 0 0 0 0 0 0 STD5.60
2025-11-10 08:08:37 25 18.20 0.125000 41.649648 41.62752893 0 0 0 0 0 0 0 0 STD5.60
2025-11-10 08:03:34 16 18.40 0.080000 41.649648 41.62752893 0 0 0 0 0 0 0 0 STD5.60
2025-11-10 07:58:32 22 20.70 0.110000 41.649648 41.62752893 0 0 0 0 0 0 0 0 STD5.60
2025-11-10 07:53:30 11 17.10 0.055000 41.649648 41.62752893 0 0 0 0 0 0 0 0 STD5.60
2025-11-10 07:48:28 19 13.80 0.095000 41.649648 41.62752893 0 0 0 0 0 0 0 0 STD5.60
2025-11-10 07:43:26 13 15.80 0.065000 41.649648 41.62752893 0 0 0 0 0 0 0 0 STD5.60
2025-11-10 07:38:23 17 17.70 0.085000 41.649648 41.62752893 0 0 0 0 0 0 0 0 STD5.60
2025-11-10 07:33:21 16 18.70 0.080000 41.649648 41.62752893 0 0 0 0 0 0 0 0 STD5.60
2025-11-10 07:28:17 24 18.80 0.120000 41.649648 41.62752893 0 0 0 0 0 0 0 0 STD5.60
2025-11-10 07:23:15 14 18.60 0.070000 41.649648 41.62752893 0 0 0 0 0 0 0 0 STD5.60
2025-11-10 07:18:13 17 19.20 0.085000 41.649648 41.62752893 0 0 0 0 0 0 0 0 STD5.60
2025-11-10 07:13:11 21 16.40 0.105000 41.649648 41.62752893 0 0 0 0 0 0 0 0 STD5.60
2025-11-10 07:08:09 15 15.90 0.075000 41.649648 41.62752893 0 0 0 0 0 0 0 0 STD5.60
2025-11-10 07:03:07 20 18.40 0.100000 41.649648 41.62752893 0 0 0 0 0 0 0 0 STD5.60
2025-11-10 06:58:04 19 19.50 0.095000 41.649648 41.62752893 0 0 0 0 0 0 0 0 STD5.60
2025-11-10 06:53:02 20 19.70 0.100000 41.649648 41.62752893 0 0 0 0 0 0 0 0 STD5.60
2025-11-10 06:48:00 22 17.70 0.110000 41.649648 41.62752893 0 0 0 0 0 0 0 0 STD5.60
2025-11-10 06:42:58 12 17.20 0.060000 41.649648 41.62752893 0 0 0 0 0 0 0 0 STD5.60
2025-11-10 06:37:56 18 18.80 0.090000 41.649648 41.62752893 0 0 0 0 0 0 0 0 STD5.60
2025-11-10 06:32:54 20 16.50 0.100000 41.649648 41.62752893 0 0 0 0 0 0 0 0 STD5.60
2025-11-10 06:27:50 11 14.90 0.055000 41.649648 41.62752893 0 0 0 0 0 0 0 0 STD5.60
2025-11-10 06:22:48 13 17.50 0.065000 41.649648 41.62752893 0 0 0 0 0 0 0 0 STD5.60
2025-11-10 06:17:45 20 18.00 0.100000 41.649648 41.62752893 0 0 0 0 0 0 0 0 STD5.60
2025-11-10 06:12:44 22 16.70 0.110000 41.649648 41.62752893 0 0 0 0 0 0 0 0 STD5.60
2025-11-10 06:07:41 18 17.60 0.090000 41.649648 41.62752893 0 0 0 0 0 0 0 0 STD5.60
2025-11-10 06:02:40 26 18.20 0.130000 41.649648 41.62752893 0 0 0 0 0 0 0 0 STD5.60
2025-11-10 05:57:37 18 18.40 0.090000 41.649648 41.62752893 0 0 0 0 0 0 0 0 STD5.60
2025-11-10 05:52:36 24 19.20 0.120000 41.649648 41.62752893 0 0 0 0 0 0 0 0 STD5.60
2025-11-10 05:47:34 19 17.00 0.095000 41.649648 41.62752893 0 0 0 0 0 0 0 0 STD5.60
2025-11-10 05:42:31 19 17.00 0.095000 41.649648 41.62752893 0 0 0 0 0 0 0 0 STD5.60
2025-11-10 05:37:30 17 18.50 0.085000 41.649648 41.62752893 0 0 0 0 0 0 0 0 STD5.60
2025-11-10 05:32:27 18 15.30 0.090000 41.649648 41.62752893 0 0 0 0 0 0 0 0 STD5.60
2025-11-10 05:27:23 12 14.50 0.060000 41.649648 41.62752893 0 0 0 0 0 0 0 0 STD5.60
2025-11-10 05:22:21 21 17.00 0.105000 41.649648 41.62752893 0 0 0 0 0 0 0 0 STD5.60
2025-11-10 05:17:18 12 17.20 0.060000 41.649648 41.62752893 0 0 0 0 0 0 0 0 STD5.60
2025-11-10 05:12:17 19 18.40 0.095000 41.649648 41.62752893 0 0 0 0 0 0 0 0 STD5.60
2025-11-10 05:07:15 22 20.30 0.110000 41.649648 41.62752893 0 0 0 0 0 0 0 0 STD5.60
2025-11-10 05:02:13 24 20.70 0.120000 41.649648 41.62752893 0 0 0 0 0 0 0 0 STD5.60
2025-11-10 04:57:10 18 18.00 0.090000 41.649648 41.62752893 0 0 0 0 0 0 0 0 STD5.60
2025-11-10 04:52:08 14 17.80 0.070000 41.649648 41.62752893 0 0 0 0 0 0 0 0 STD5.60
2025-11-10 04:47:06 10 20.00 0.050000 41.649648 41.62752893 0 0 0 0 0 0 0 0 STD5.60
2025-11-10 04:42:04 28 16.90 0.140000 41.649648 41.62752893 0 0 0 0 0 0 0 0 STD5.60
2025-11-10 04:37:02 16 15.80 0.080000 41.649648 41.62752893 0 0 0 0 0 0 0 0 STD5.60
2025-11-10 04:31:59 19 18.70 0.095000 41.649648 41.62752893 0 0 0 0 0 0 0 0 STD5.60
2025-11-10 04:26:55 21 17.90 0.105000 41.649648 41.62752893 0 0 0 0 0 0 0 0 STD5.60
2025-11-10 04:21:53 18 16.80 0.090000 41.649648 41.62752893 0 0 0 0 0 0 0 0 STD5.60
2025-11-10 04:16:51 18 18.20 0.090000 41.649648 41.62752893 0 0 0 0 0 0 0 0 STD5.60
2025-11-10 04:11:49 30 18.00 0.150000 41.649648 41.62752893 0 0 0 0 0 0 0 0 STD5.60
2025-11-10 04:06:46 22 16.70 0.110000 41.649648 41.62752893 0 0 0 0 0 0 0 0 STD5.60
2025-11-10 04:01:44 15 17.60 0.075000 41.649648 41.62752893 0 0 0 0 0 0 0 0 STD5.60
2025-11-10 03:56:42 24 18.80 0.120000 41.649648 41.62752893 0 0 0 0 0 0 0 0 STD5.60
2025-11-10 03:51:40 17 18.60 0.085000 41.649648 41.62752893 0 0 0 0 0 0 0 0 STD5.60
2025-11-10 03:46:38 15 17.70 0.075000 41.649648 41.62752893 0 0 0 0 0 0 0 0 STD5.60
2025-11-10 03:41:36 10 16.60 0.050000 41.649648 41.62752893 0 0 0 0 0 0 0 0 STD5.60
2025-11-10 03:36:33 12 18.20 0.060000 41.649648 41.62752893 0 0 0 0 0 0 0 0 STD5.60
2025-11-10 03:31:32 23 20.50 0.115000 41.649648 41.62752893 0 0 0 0 0 0 0 0 STD5.60
2025-11-10 03:26:26 23 20.40 0.115000 41.649648 41.62752893 0 0 0 0 0 0 0 0 STD5.60
2025-11-10 03:21:24 22 18.90 0.110000 41.649648 41.62752893 0 0 0 0 0 0 0 0 STD5.60
2025-11-10 03:16:22 21 17.30 0.105000 41.649648 41.62752893 0 0 0 0 0 0 0 0 STD5.60
2025-11-10 03:11:20 26 16.80 0.130000 41.649648 41.62752893 0 0 0 0 0 0 0 0 STD5.60
2025-11-10 03:06:18 16 15.40 0.080000 41.649648 41.62752893 0 0 0 0 0 0 0 0 STD5.60
2025-11-10 03:01:16 15 17.20 0.075000 41.649648 41.62752893 0 0 0 0 0 0 0 0 STD5.60
2025-11-10 02:56:14 18 18.80 0.090000 41.649648 41.62752893 0 0 0 0 0 0 0 0 STD5.60
2025-11-10 02:51:11 14 19.60 0.070000 41.649648 41.62752893 0 0 0 0 0 0 0 0 STD5.60
2025-11-10 02:46:09 18 20.00 0.090000 41.649648 41.62752893 0 0 0 0 0 0 0 0 STD5.60
2025-11-10 02:41:07 26 17.70 0.130000 41.649648 41.62752893 0 0 0 0 0 0 0 0 STD5.60
2025-11-10 02:36:05 14 19.30 0.070000 41.649648 41.62752893 0 0 0 0 0 0 0 0 STD5.60
2025-11-10 02:31:03 21 18.40 0.105000 41.649648 41.62752893 0 0 0 0 0 0 0 0 STD5.60
2025-11-10 02:25:58 8 14.80 0.040000 41.649648 41.62752893 0 0 0 0 0 0 0 0 STD5.60
2025-11-10 02:20:56 18 14.00 0.090000 41.649648 41.62752893 0 0 0 0 0 0 0 0 STD5.60
2025-11-10 02:15:54 15 15.70 0.075000 41.649648 41.62752893 0 0 0 0 0 0 0 0 STD5.60
2025-11-10 02:10:52 16 17.80 0.080000 41.649648 41.62752893 0 0 0 0 0 0 0 0 STD5.60
2025-11-10 02:05:50 16 17.00 0.080000 41.649648 41.62752893 0 0 0 0 0 0 0 0 STD5.60
2025-11-10 02:00:47 14 16.00 0.070000 41.649648 41.62752893 0 0 0 0 0 0 0 0 STD5.60
2025-11-10 01:55:45 19 17.10 0.095000 41.649648 41.62752893 0 0 0 0 0 0 0 0 STD5.60
2025-11-10 01:50:43 19 17.70 0.095000 41.649648 41.62752893 0 0 0 0 0 0 0 0 STD5.60
2025-11-10 01:45:41 13 16.60 0.065000 41.649648 41.62752893 0 0 0 0 0 0 0 0 STD5.60
2025-11-10 01:40:38 17 16.20 0.085000 41.649648 41.62752893 0 0 0 0 0 0 0 0 STD5.60
2025-11-10 01:35:36 20 16.80 0.100000 41.649648 41.62752893 0 0 0 0 0 0 0 0 STD5.60
2025-11-10 01:30:34 20 16.70 0.100000 41.649648 41.62752893 0 0 0 0 0 0 0 0 STD5.60
2025-11-10 01:25:30 15 17.30 0.075000 41.649648 41.62752893 0 0 0 0 0 0 0 0 STD5.60
2025-11-10 01:20:28 23 17.50 0.115000 41.649648 41.62752893 0 0 0 0 0 0 0 0 STD5.60
2025-11-10 01:15:25 17 16.90 0.085000 41.649648 41.62752893 0 0 0 0 0 0 0 0 STD5.60
2025-11-10 01:10:23 20 19.60 0.100000 41.649648 41.62752893 0 0 0 0 0 0 0 0 STD5.60
2025-11-10 01:05:21 20 20.20 0.100000 41.649648 41.62752893 0 0 0 0 0 0 0 0 STD5.60
2025-11-10 01:00:20 16 18.30 0.080000 41.649648 41.62752893 0 0 0 0 0 0 0 0 STD5.60
2025-11-10 00:55:18 21 18.10 0.105000 41.649648 41.62752893 0 0 0 0 0 0 0 0 STD5.60
2025-11-10 00:50:16 15 18.80 0.075000 41.649648 41.62752893 0 0 0 0 0 0 0 0 STD5.60
2025-11-10 00:45:13 24 18.70 0.120000 41.649648 41.62752893 0 0 0 0 0 0 0 0 STD5.60
2025-11-10 00:40:11 15 18.70 0.075000 41.649648 41.62752893 0 0 0 0 0 0 0 0 STD5.60
2025-11-10 00:35:09 19 18.70 0.095000 41.649648 41.62752893 0 0 0 0 0 0 0 0 STD5.60
2025-11-10 00:30:07 14 16.70 0.070000 41.649648 41.62752893 0 0 0 0 0 0 0 0 STD5.60
2025-11-10 00:25:03 21 16.60 0.105000 41.649648 41.62752893 0 0 0 0 0 0 0 0 STD5.60
2025-11-10 00:20:00 17 16.80 0.085000 41.649648 41.62752893 0 0 0 0 0 0 0 0 STD5.60
2025-11-10 00:14:58 20 17.30 0.100000 41.649648 41.62752893 0 0 0 0 0 0 0 0 STD5.60
2025-11-10 00:09:55 13 16.00 0.065000 41.649648 41.62752893 0 0 0 0 0 0 0 0 STD5.60
2025-11-10 00:04:54 14 16.40 0.070000 41.649648 41.62752893 0 0 0 0 0 0 0 0 STD5.60
2025-11-09 23:59:52 20 18.30 0.100000 41.649648 41.62752893 0 0 0 0 0 0 0 0 STD5.60
2025-11-09 23:54:49 23 17.90 0.115000 41.649648 41.62752893 0 0 0 0 0 0 0 0 STD5.60
2025-11-09 23:49:47 16 18.00 0.080000 41.649648 41.62752893 0 0 0 0 0 0 0 0 STD5.60
2025-11-09 23:44:46 14 17.20 0.070000 41.649648 41.62752893 0 0 0 0 0 0 0 0 STD5.60
2025-11-09 23:39:43 11 17.00 0.055000 41.649648 41.62752893 0 0 0 0 0 0 0 0 STD5.60
2025-11-09 23:34:41 14 16.90 0.070000 41.649648 41.62752893 0 0 0 0 0 0 0 0 STD5.60
2025-11-09 23:29:39 15 16.30 0.075000 41.649648 41.62752893 0 0 0 0 0 0 0 0 STD5.60
2025-11-09 23:24:35 16 17.60 0.080000 41.649648 41.62752893 0 0 0 0 0 0 0 0 STD5.60
2025-11-09 23:19:33 18 18.50 0.090000 41.649648 41.62752893 0 0 0 0 0 0 0 0 STD5.60
2025-11-09 23:14:31 18 18.60 0.090000 41.649648 41.62752893 0 0 0 0 0 0 0 0 STD5.60
2025-11-09 23:09:28 16 19.00 0.080000 41.649648 41.62752893 0 0 0 0 0 0 0 0 STD5.60
2025-11-09 23:04:26 23 18.70 0.115000 41.649648 41.62752893 0 0 0 0 0 0 0 0 STD5.60
2025-11-09 22:59:24 22 18.10 0.110000 41.649648 41.62752893 0 0 0 0 0 0 0 0 STD5.60
2025-11-09 22:54:22 17 18.30 0.085000 41.649648 41.62752893 0 0 0 0 0 0 0 0 STD5.60
2025-11-09 22:49:20 14 19.80 0.070000 41.649648 41.62752893 0 0 0 0 0 0 0 0 STD5.60
2025-11-09 22:44:18 17 18.80 0.085000 41.649648 41.62752893 0 0 0 0 0 0 0 0 STD5.60
2025-11-09 22:39:16 11 18.20 0.055000 41.649648 41.62752893 0 0 0 0 0 0 0 0 STD5.60
2025-11-09 22:34:14 17 19.40 0.085000 41.649648 41.62752893 0 0 0 0 0 0 0 0 STD5.60
2025-11-09 22:29:12 19 18.40 0.095000 41.649648 41.62752893 0 0 0 0 0 0 0 0 STD5.60
2025-11-09 22:24:07 16 16.30 0.080000 41.649648 41.62752893 0 0 0 0 0 0 0 0 STD5.60
2025-11-09 22:19:05 15 17.30 0.075000 41.649648 41.62752893 0 0 0 0 0 0 0 0 STD5.60
2025-11-09 22:14:03 21 19.00 0.105000 41.649648 41.62752893 0 0 0 0 0 0 0 0 STD5.60
2025-11-09 22:09:00 21 19.20 0.105000 41.649648 41.62752893 0 0 0 0 0 0 0 0 STD5.60
2025-11-09 22:03:59 16 18.80 0.080000 41.649648 41.62752893 0 0 0 0 0 0 0 0 STD5.60
2025-11-09 21:58:57 15 18.90 0.075000 41.649648 41.62752893 0 0 0 0 0 0 0 0 STD5.60
2025-11-09 21:53:55 12 19.10 0.060000 41.649648 41.62752893 0 0 0 0 0 0 0 0 STD5.60
2025-11-09 21:48:52 20 18.20 0.100000 41.649648 41.62752893 0 0 0 0 0 0 0 0 STD5.60
2025-11-09 21:43:51 18 16.90 0.090000 41.649648 41.62752893 0 0 0 0 0 0 0 0 STD5.60
2025-11-09 21:38:48 9 17.20 0.045000 41.649648 41.62752893 0 0 0 0 0 0 0 0 STD5.60
2025-11-09 21:33:46 19 17.50 0.095000 41.649648 41.62752893 0 0 0 0 0 0 0 0 STD5.60
2025-11-09 21:28:44 12 18.40 0.060000 41.649648 41.62752893 0 0 0 0 0 0 0 0 STD5.60
2025-11-09 21:23:40 16 18.80 0.080000 41.649648 41.62752893 0 0 0 0 0 0 0 0 STD5.60
2025-11-09 21:18:38 17 18.10 0.085000 41.649648 41.62752893 0 0 0 0 0 0 0 0 STD5.60
2025-11-09 21:13:35 24 17.30 0.120000 41.649648 41.62752893 0 0 0 0 0 0 0 0 STD5.60
2025-11-09 21:08:34 15 18.30 0.075000 41.649648 41.62752893 0 0 0 0 0 0 0 0 STD5.60
2025-11-09 21:03:31 20 18.60 0.100000 41.649648 41.62752893 0 0 0 0 0 0 0 0 STD5.60
2025-11-09 20:58:29 12 19.60 0.060000 41.649648 41.62752893 0 0 0 0 0 0 0 0 STD5.60
2025-11-09 20:53:27 15 20.10 0.075000 41.649648 41.62752893 0 0 0 0 0 0 0 0 STD5.60
2025-11-09 20:48:25 14 17.70 0.070000 41.649648 41.62752893 0 0 0 0 0 0 0 0 STD5.60
2025-11-09 20:43:23 15 17.60 0.075000 41.649648 41.62752893 0 0 0 0 0 0 0 0 STD5.60
2025-11-09 20:38:21 21 19.00 0.105000 41.649648 41.62752893 0 0 0 0 0 0 0 0 STD5.60
2025-11-09 20:33:18 19 18.80 0.095000 41.649648 41.62752893 0 0 0 0 0 0 0 0 STD5.60
2025-11-09 20:28:16 25 18.10 0.125000 41.649648 41.62752893 0 0 0 0 0 0 0 0 STD5.60
2025-11-09 20:23:11 18 18.50 0.090000 41.649648 41.62752893 0 0 0 0 0 0 0 0 STD5.60
2025-11-09 20:18:09 16 17.80 0.080000 41.649648 41.62752893 0 0 0 0 0 0 0 0 STD5.60
2025-11-09 20:13:07 20 15.70 0.100000 41.649648 41.62752893 0 0 0 0 0 0 0 0 STD5.60
2025-11-09 20:08:05 10 15.00 0.050000 41.649648 41.62752893 0 0 0 0 0 0 0 0 STD5.60
2025-11-09 20:03:03 16 15.20 0.080000 41.649648 41.62752893 0 0 0 0 0 0 0 0 STD5.60
2025-11-09 19:58:00 14 17.10 0.070000 41.649648 41.62752893 0 0 0 0 0 0 0 0 STD5.60
2025-11-09 19:52:58 15 18.10 0.075000 41.649648 41.62752893 0 0 0 0 0 0 0 0 STD5.60
2025-11-09 19:47:56 21 18.20 0.105000 41.649648 41.62752893 0 0 0 0 0 0 0 0 STD5.60
2025-11-09 19:42:54 22 19.60 0.110000 41.649648 41.62752893 0 0 0 0 0 0 0 0 STD5.60
2025-11-09 19:37:52 18 20.90 0.090000 41.649648 41.62752893 0 0 0 0 0 0 0 0 STD5.60
2025-11-09 19:32:50 28 19.00 0.140000 41.649648 41.62752893 0 0 0 0 0 0 0 0 STD5.60
2025-11-09 19:27:47 15 16.40 0.075000 41.649648 41.62752893 0 0 0 0 0 0 0 0 STD5.60
2025-11-09 19:22:43 25 18.10 0.125000 41.649648 41.62752893 0 0 0 0 0 0 0 0 STD5.60
2025-11-09 19:17:41 17 19.50 0.085000 41.649648 41.62752893 0 0 0 0 0 0 0 0 STD5.60
2025-11-09 19:12:39 17 20.20 0.085000 41.649648 41.62752893 0 0 0 0 0 0 0 0 STD5.60
2025-11-09 19:07:36 18 20.40 0.090000 41.649648 41.62752893 0 0 0 0 0 0 0 0 STD5.60
2025-11-09 19:02:35 21 18.30 0.105000 41.649648 41.62752893 0 0 0 0 0 0 0 0 STD5.60
2025-11-09 18:57:33 14 18.10 0.070000 41.649648 41.62752893 0 0 0 0 0 0 0 0 STD5.60
2025-11-09 18:52:31 29 20.10 0.145000 41.649648 41.62752893 0 0 0 0 0 0 0 0 STD5.60
2025-11-09 18:47:29 26 18.70 0.130000 41.649648 41.62752893 0 0 0 0 0 0 0 0 STD5.60
2025-11-09 18:42:26 21 18.50 0.105000 41.649648 41.62752893 0 0 0 0 0 0 0 0 STD5.60
2025-11-09 18:37:24 23 18.20 0.115000 41.649648 41.62752893 0 0 0 0 0 0 0 0 STD5.60
2025-11-09 18:32:21 13 16.40 0.065000 41.649648 41.62752893 0 0 0 0 0 0 0 0 STD5.60
2025-11-09 18:27:19 14 17.80 0.070000 41.649648 41.62752893 0 0 0 0 0 0 0 0 STD5.60
2025-11-09 18:22:15 15 17.40 0.075000 41.649648 41.62752893 0 0 0 0 0 0 0 0 STD5.60
2025-11-09 18:17:16 16 17.00 0.080000 41.649648 41.62752893 0 0 0 0 0 0 0 0 STD5.60
2025-11-09 18:12:10 19 17.30 0.095000 41.649648 41.62752893 0 0 0 0 0 0 0 0 STD5.60
2025-11-09 18:07:09 18 17.10 0.090000 41.649648 41.62752893 0 0 0 0 0 0 0 0 STD5.60
2025-11-09 18:02:06 23 18.60 0.115000 41.649648 41.62752893 0 0 0 0 0 0 0 0 STD5.60
2025-11-09 17:57:05 18 18.30 0.090000 41.649648 41.62752893 0 0 0 0 0 0 0 0 STD5.60
2025-11-09 17:52:02 19 17.30 0.095000 41.649648 41.62752893 0 0 0 0 0 0 0 0 STD5.60
2025-11-09 17:46:59 11 18.40 0.055000 41.649648 41.62752893 0 0 0 0 0 0 0 0 STD5.60
2025-11-09 17:41:57 26 18.30 0.130000 41.649648 41.62752893 0 0 0 0 0 0 0 0 STD5.60
2025-11-09 17:36:55 13 18.20 0.065000 41.649648 41.62752893 0 0 0 0 0 0 0 0 STD5.60
2025-11-09 17:31:53 16 19.90 0.080000 41.649648 41.62752893 0 0 0 0 0 0 0 0 STD5.60
2025-11-09 17:26:48 27 19.50 0.135000 41.649648 41.62752893 0 0 0 0 0 0 0 0 STD5.60
2025-11-09 17:21:47 15 17.20 0.075000 41.649648 41.62752893 0 0 0 0 0 0 0 0 STD5.60
2025-11-09 17:16:45 15 17.10 0.075000 41.649648 41.62752893 0 0 0 0 0 0 0 0 STD5.60
2025-11-09 17:11:42 12 18.80 0.060000 41.649648 41.62752893 0 0 0 0 0 0 0 0 STD5.60
2025-11-09 17:06:40 19 17.90 0.095000 41.649648 41.62752893 0 0 0 0 0 0 0 0 STD5.60
2025-11-09 17:01:38 18 16.90 0.090000 41.649648 41.62752893 0 0 0 0 0 0 0 0 STD5.60
2025-11-09 16:56:36 15 16.60 0.075000 41.649648 41.62752893 0 0 0 0 0 0 0 0 STD5.60
2025-11-09 16:51:34 16 16.10 0.080000 41.649648 41.62752893 0 0 0 0 0 0 0 0 STD5.60
2025-11-09 16:46:31 15 16.70 0.075000 41.649648 41.62752893 0 0 0 0 0 0 0 0 STD5.60
2025-11-09 16:41:29 20 17.30 0.100000 41.649648 41.62752893 0 0 0 0 0 0 0 0 STD5.60
2025-11-09 16:36:27 23 14.80 0.115000 41.649648 41.62752893 0 0 0 0 0 0 0 0 STD5.60
2025-11-09 16:31:25 9 16.00 0.045000 41.649648 41.62752893 0 0 0 0 0 0 0 0 STD5.60
2025-11-09 16:26:21 19 18.60 0.095000 41.649648 41.62752893 0 0 0 0 0 0 0 0 STD5.60
2025-11-09 16:21:19 18 16.20 0.090000 41.649648 41.62752893 0 0 0 0 0 0 0 0 STD5.60
2025-11-09 16:16:17 13 14.60 0.065000 41.649648 41.62752893 0 0 0 0 0 0 0 0 STD5.60
2025-11-09 16:11:15 8 17.00 0.040000 41.649648 41.62752893 0 0 0 0 0 0 0 0 STD5.60
2025-11-09 16:06:13 25 20.30 0.125000 41.649648 41.62752893 0 0 0 0 0 0 0 0 STD5.60
2025-11-09 16:01:10 20 19.90 0.100000 41.649648 41.62752893 0 0 0 0 0 0 0 0 STD5.60
2025-11-09 15:56:08 26 19.00 0.130000 41.649648 41.62752893 0 0 0 0 0 0 0 0 STD5.60
2025-11-09 15:51:06 15 18.50 0.075000 41.649648 41.62752893 0 0 0 0 0 0 0 0 STD5.60
2025-11-09 15:46:04 16 17.60 0.080000 41.649648 41.62752893 0 0 0 0 0 0 0 0 STD5.60
2025-11-09 15:41:02 15 19.10 0.075000 41.649648 41.62752893 0 0 0 0 0 0 0 0 STD5.60
2025-11-09 15:36:00 24 18.60 0.120000 41.649648 41.62752893 0 0 0 0 0 0 0 0 STD5.60
2025-11-09 15:30:58 16 16.70 0.080000 41.649648 41.62752893 0 0 0 0 0 0 0 0 STD5.60
2025-11-09 15:25:52 23 17.20 0.115000 41.649648 41.62752893 0 0 0 0 0 0 0 0 STD5.60
2025-11-09 15:20:50 26 17.80 0.130000 41.649648 41.62752893 0 0 0 0 0 0 0 0 STD5.60
2025-11-09 15:15:48 17 18.80 0.085000 41.649648 41.62752893 0 0 0 0 0 0 0 0 STD5.60
2025-11-09 15:10:46 15 20.00 0.075000 41.649648 41.62752893 0 0 0 0 0 0 0 0 STD5.60
2025-11-09 15:05:44 23 21.20 0.115000 41.649648 41.62752893 0 0 0 0 0 0 0 0 STD5.60
2025-11-09 15:00:42 18 20.70 0.090000 41.649648 41.62752893 0 0 0 0 0 0 0 0 STD5.60
2025-11-09 14:55:39 11 19.70 0.055000 41.649648 41.62752893 0 0 0 0 0 0 0 0 STD5.60
2025-11-09 14:50:37 22 19.20 0.110000 41.649648 41.62752893 0 0 0 0 0 0 0 0 STD5.60
2025-11-09 14:45:35 15 18.80 0.075000 41.649648 41.62752893 0 0 0 0 0 0 0 0 STD5.60
2025-11-09 14:40:33 12 19.20 0.060000 41.649648 41.62752893 0 0 0 0 0 0 0 0 STD5.60
2025-11-09 14:35:30 22 17.40 0.110000 41.649648 41.62752893 0 0 0 0 0 0 0 0 STD5.60
2025-11-09 14:30:28 12 16.50 0.060000 41.649648 41.62752893 0 0 0 0 0 0 0 0 STD5.60
2025-11-09 14:25:24 13 17.50 0.065000 41.649648 41.62752893 0 0 0 0 0 0 0 0 STD5.60
2025-11-09 14:20:22 17 18.30 0.085000 41.649648 41.62752893 0 0 0 0 0 0 0 0 STD5.60
2025-11-09 14:15:20 16 17.20 0.080000 41.649648 41.62752893 0 0 0 0 0 0 0 0 STD5.60
2025-11-09 14:10:17 9 16.80 0.045000 41.649648 41.62752893 0 0 0 0 0 0 0 0 STD5.60
2025-11-09 14:05:16 19 19.80 0.095000 41.649648 41.62752893 0 0 0 0 0 0 0 0 STD5.60
2025-11-09 14:00:14 23 21.50 0.115000 41.649648 41.62752893 0 0 0 0 0 0 0 0 STD5.60
2025-11-09 13:55:12 18 19.80 0.090000 41.649648 41.62752893 0 0 0 0 0 0 0 0 STD5.60
2025-11-09 13:50:09 19 19.30 0.095000 41.649648 41.62752893 0 0 0 0 0 0 0 0 STD5.60
2025-11-09 13:45:07 27 20.10 0.135000 41.649648 41.62752893 0 0 0 0 0 0 0 0 STD5.60
2025-11-09 13:40:05 14 18.40 0.070000 41.649648 41.62752893 0 0 0 0 0 0 0 0 STD5.60
2025-11-09 13:35:05 17 18.00 0.085000 41.649648 41.62752893 0 0 0 0 0 0 0 0 STD5.60
2025-11-09 13:30:00 19 18.40 0.095000 41.649648 41.62752893 0 0 0 0 0 0 0 0 STD5.60
2025-11-09 13:24:56 18 17.60 0.090000 41.649648 41.62752893 0 0 0 0 0 0 0 0 STD5.60
2025-11-09 13:19:53 18 17.00 0.090000 41.649648 41.62752893 0 0 0 0 0 0 0 0 STD5.60
2025-11-09 13:14:51 13 17.00 0.065000 41.649648 41.62752893 0 0 0 0 0 0 0 0 STD5.60
2025-11-09 13:09:49 21 18.70 0.105000 41.649648 41.62752893 0 0 0 0 0 0 0 0 STD5.60
2025-11-09 13:04:47 27 19.60 0.135000 41.649648 41.62752893 0 0 0 0 0 0 0 0 STD5.60
2025-11-09 12:59:44 21 17.60 0.105000 41.649648 41.62752893 0 0 0 0 0 0 0 0 STD5.60
2025-11-09 12:54:42 15 17.50 0.075000 41.649648 41.62752893 0 0 0 0 0 0 0 0 STD5.60
2025-11-09 12:49:40 16 18.20 0.080000 41.649648 41.62752893 0 0 0 0 0 0 0 0 STD5.60
2025-11-09 12:44:38 13 18.90 0.065000 41.649648 41.62752893 0 0 0 0 0 0 0 0 STD5.60
2025-11-09 12:39:36 16 18.60 0.080000 41.649648 41.62752893 0 0 0 0 0 0 0 0 STD5.60
2025-11-09 12:34:34 20 13.50 0.100000 41.649648 41.62752893 0 0 0 0 0 0 0 0 STD5.60
2025-11-09 12:29:32 17 5.20 0.085000 41.649648 41.62752893 0 0 0 0 0 0 0 0 STD5.60
2025-11-09 12:24:28 20 18.40 0.100000 41.649648 41.62752893 0 0 0 0 0 0 0 0 STD5.60
2025-11-09 12:19:26 20 19.40 0.100000 41.649648 41.62752893 0 0 0 0 0 0 0 0 STD5.60
2025-11-09 12:14:24 20 16.80 0.100000 41.649648 41.62752893 0 0 0 0 0 0 0 0 STD5.60
2025-11-09 12:09:21 22 17.20 0.110000 41.649648 41.62752893 0 0 0 0 0 0 0 0 STD5.60
2025-11-09 12:04:19 21 17.30 0.105000 41.649648 41.62752893 0 0 0 0 0 0 0 0 STD5.60
Geiger Counter World Map       A real time radiation map.     Copyright 2015 All rights reserved.